SCP
0 0 0 0 0 0 0 0 0 0 0 0 0 0 0 0 0 0 0 0 0 0 0 0 0 0 0 0 0 0 0 0 0 0 0 0 0 0 0 0 0 0 0 0 0 0 0 0 0
0 0 0 0 0 0 0 0 0 0 0 0 0 0 0 0 0 0 0 0 0 0 0 0 0 0 0 0 0 0 0 0 0 0 0 0 0 0 0 0 0 0 0 0 0 0 0 0 0
0 0 0 0 0 0 0 0 0 0 0 0 0 0 0 0 0 0 0 0 0 0 0 0 0 0 0 0 0 0 0 0 0 0 0 0 0 0 0 0 0 0 0 0 0 0 0 0 0
0 0 0 0 0 0 0 0 0 0 0 0 0 0 0 0 0 0 0 0 0 0 0 0 0 0 0 0 0 0 0 0 0 0 0 0 0 0 0 0 0 0 0 0 0 0 0 0 0
0 0 0 0 0 0 0 0 0 0 0 0 0 0 0 0 0 0 0 0 0 0 0 0 0 0 0 0 0 0 0 0 0 0 0 0 0 0 0 0 0 0 0 0 0 0 0 0 0
0 0 0 0 0 0 0 0 0 0 0 0 0 0 0 0 0 0 0 0 0 0 0 0 0 0 0 0 0 0 0 0 0 0 0 0 0 0 0 0 0 0 0 0 0 0 0 0 0
0 0 0 0 0 0 0 0 0 0 0 0 0 0 0 0 0 0 0 0 0 0 0 0 0 0 0 0 0 0 0 0 0 0 0 0 0 0 0 0 0 0 0 0 0 0 0 0 0
0 0 0 0 0 0 0 0 0 0 0 0 0 0 0 0 0 0 0 0 0 0 0 0 0 0 0 0 0 0 0 0 0 0 0 0 0 0 0 0 0 0 0 0 0 0 0 0 0
0 0 0 0 0 0 0 0 0 0 0 0 0 0 0 0 0 0 0 0 0 0 0 0 0 0 0 0 0 0 0 0 0 0 0 0 0 0 0 0 0 0 0 0 0 0 0 0 0
0 0 0 0 0 0 0 0 0 0 0 0 0 0 0 0 0 0 0 0 0 0 0 0 0 0 0 0 0 0 0 0 0 0 0 0 0 0 0 0 0 0 0 0 0 0 0 0 0
0 0 0 0 0 0 0 0 0 0 0 0 0 0 0 0 0 0 0 0 0 0 0 0 0 0 0 0 0 0 0 0 0 0 0 0 0 0 0 0 0 0 0 0 0 0 0 0 0
0 0 0 0 0 0 0 0 0 0 0 0 0 0 0 0 0 0 0 0 0 0 0 0 0 0 0 0 0 0 0 0 0 0 0 0 0 0 0 0 0 0 0 0 0 0 0 0 0
0 0 0 0 0 0 0 0 0 0 0 0 0 0 0 0 0 0 0 0 0 0 0 0 0 0 0 0 0 0 0 0 0 0 0 0 0 0 0 0 0 0 0 0 0 0 0 0 0
0 0 0 0 0 0 0 0 0 0 0 0 0 0 0 0 0 0 0 0 0 0 0 0 0 0 0 0 0 0 0 0 0 0 0 0 0 0 0 0 0 0 0 0 0 0 0 0 0
0 0 0 0 0 0 0 0 0 0 0 0 0 0 0 0 0 0 0 0 0 0 0 0 0 0 0 0 0 0 0 0 0 0 0 0 0 0 0 0 0 0 0 0 0 0 0 0 0
0 0 0 0 0 0 0 0 0 0 0 0 0 0 0 0 0 0 0 0 0 0 0 0 0 0 0 0 0 0 0 0 0 0 0 0 0 0 0 0 0 0 0 0 0 0 0 0 0
0 0 0 0 0 0 0 0 0 0 0 0 0 0 0 0 0 0 0 0 0 0 0 0 0 0 0 0 0 0 0 0 0 0 0 0 0 0 0 0 0 0 0 0 0 0 0 0 0
0 0 0 0 0 0 0 0 0 0 0 0 0 0 0 0 0 0 0 0 0 0 0 0 0 0 0 0 0 0 0 0 0 0 0 0 0 0 0 0 0 0 0 0 0 0 0 0 0
0 0 0 0 0 0 0 0 0 0 0 0 0 0 0 0 0 0 0 0 0 0 0 0 0 0 0 0 0 0 0 0 0 0 0 0 0 0 0 0 0 0 0 0 0 0 0 0 0
0 0 0 0 0 0 0 0 0 0 0 0 0 0 0 0 0 0 0 0 0 0 0 0 0 0 0 0 0 0 0 0 0 0 0 0 0 0 0 0 0 0 0 0 0 0 0 0 0
0 0 0 0 0 0 0 0 0 0 0 0 0 0 0 0 0 0 0 0 0 0 0 0 0 0 0 0 0 0 0 0 0 0 0 0 0 0 0 0 0 0 0 0 0 0 0 0 0
0 0 0 0 0 0 0 0 0 0 0 0 0 0 0 0 0 0 0 0 0 0 0 0 0 0 0 0 0 0 0 0 0 0 0 0 0 0 0 0 0 0 0 0 0 0 0 0 0
0 0 0 0 0 0 0 0 0 0 0 0 0 0 0 0 0 0 0 0 0 0 0 0 0 0 0 0 0 0 0 0 0 0 0 0 0 0 0 0 0 0 0 0 0 0 0 0 0
0 0 0 0 0 0 0 0 0 0 0 0 0 0 0 0 0 0 0 0 0 0 0 0 0 0 0 0 0 0 0 0 0 0 0 0 0 0 0 0 0 0 0 0 0 0 0 0 0
0 0 0 0 0 0 0 0 0 0 0 0 0 0 0 0 0 0 0 0 0 0 0 0 0 0 0 0 0 0 0 0 0 0 0 0 0 0 0 0 0 0 0 0 0 0 0 0 0
0 0 0 0 0 0 0 0 0 0 0 0 0 0 0 0 0 0 0 0 0 0 0 0 0 0 0 0 0 0 0 0 0 0 0 0 0 0 0 0 0 0 0 0 0 0 0 0 0
0 0 0 0 0 0 0 0 0 0 0 0 0 0 0 0 0 0 0 0 0 0 0 0 0 0 0 0 0 0 0 0 0 0 0 0 0 0 0 0 0 0 0 0 0 0 0 0 0
0 0 0 0 0 0 0 0 0 0 0 0 0 0 0 0 0 0 0 0 0 0 0 0 0 0 0 0 0 0 0 0 0 0 0 0 0 0 0 0 0 0 0 0 0 0 0 0 0
0 0 0 0 0 0 0 0 0 0 0 0 0 0 0 0 0 0 0 0 0 0 0 0 0 0 0 0 0 0 0 0 0 0 0 0 0 0 0 0 0 0 0 0 0 0 0 0 0
0 0 0 0 0 0 0 0 0 0 0 0 0 0 0 0 0 0 0 0 0 0 0 0 0 0 0 0 0 0 0 0 0 0 0 0 0 0 0 0 0 0 0 0 0 0 0 0 0
Wind_Speed
5 4 2 3 4 4 6 3 2 3 3 2 1 1 1 1 2 4 4 3 2 3 4 5 3 5 7 7 8 8 8 8 9 9 10 10 10 10 10 10 10 10 10 10 10 10 10 11 11
4 2 3 3 5 7 5 4 5 2 3 3 2 1 1 3 4 4 2 3 2 3 4 4 5 6 7 8 8 8 8 8 9 9 9 9 10 10 10 10 10 10 10 10 11 10 10 10 10
1 2 2 3 5 6 4 3 3 3 3 2 2 1 2 3 3 2 3 2 1 3 3 5 5 6 8 8 8 8 8 8 9 9 8 9 9 9 9 10 10 10 10 10 10 10 10 10 9
2 2 2 5 7 4 2 2 3 5 3 1 2 3 3 4 3 3 3 1 3 3 3 6 6 6 7 8 8 8 8 8 8 8 8 9 9 9 9 9 9 9 9 9 9 9 9 10 9
2 3 5 6 7 4 3 1 3 4 3 2 2 2 3 3 3 2 2 3 3 3 3 5 6 6 6 7 8 8 8 8 8 8 8 8 9 9 9 9 9 9 9 9 9 9 9 9 9
3 4 7 8 8 5 3 3 4 4 3 2 2 3 4 4 3 3 3 3 4 4 3 4 6 6 6 7 7 8 8 8 8 8 8 8 8 9 9 8 8 8 8 9 9 9 9 9 8
3 4 7 8 7 7 4 4 4 4 4 2 1 3 4 4 3 3 3 4 4 4 3 3 4 5 6 7 7 7 7 7 8 8 8 8 8 8 8 8 7 7 8 8 8 8 8 8 8
2 3 6 7 8 7 4 4 1 3 2 2 1 3 3 4 3 3 4 4 4 4 4 3 3 3 4 5 8 8 8 8 9 9 8 8 8 8 8 7 7 7 8 8 8 8 8 7 8
3 6 8 8 7 5 5 4 2 1 3 2 0 1 3 5 5 4 3 3 3 3 3 3 3 3 3 4 6 7 8 8 7 7 8 5 4 5 5 8 8 7 7 7 7 7 7 6 6
5 7 7 3 3 3 5 4 3 4 4 3 3 2 4 5 4 4 3 2 2 2 2 2 3 3 3 3 4 4 4 4 4 4 4 3 3 3 4 7 8 8 7 6 6 6 4 2 2
4 6 4 3 2 3 4 3 3 5 5 4 4 5 6 5 4 4 3 2 2 1 2 2 2 2 3 2 3 2 2 2 3 4 4 3 2 2 2 2 3 3 3 3 3 2 2 2 2
3 3 3 2 2 2 4 3 4 6 4 1 2 5 6 7 5 4 3 3 2 2 2 2 2 2 3 3 2 2 2 2 2 3 3 2 1 2 2 1 2 1 1 2 2 1 2 2 2
5 3 2 2 2 2 3 5 5 6 3 1 2 5 6 6 5 4 3 2 2 2 2 2 2 2 3 2 2 2 2 2 3 2 2 2 1 1 1 1 1 1 1 1 1 1 1 2 2
2 3 2 2 3 3 4 5 5 5 2 3 4 5 5 5 5 4 3 3 3 2 2 2 2 2 3 3 2 2 2 2 2 3 3 2 2 1 1 1 1 1 1 1 1 2 1 1 1
2 3 3 3 4 3 4 7 9 6 4 4 5 5 5 5 5 5 4 4 3 3 3 2 3 3 3 3 2 2 2 2 2 2 3 3 2 2 1 1 1 2 1 1 1 1 1 1 1
4 5 6 3 3 4 7 10 6 4 6 7 6 5 5 5 5 4 3 3 3 3 3 3 2 3 3 3 2 2 2 2 2 2 2 3 2 2 1 1 1 1 1 1 1 1 1 1 1
6 7 7 4 3 3 8 9 4 4 6 7 7 6 5 5 4 4 4 3 3 3 3 3 3 3 3 3 2 2 2 2 2 2 2 2 2 1 1 1 1 2 1 1 1 2 2 2 2
6 7 6 6 2 5 8 10 5 5 6 8 7 6 6 5 5 3 3 3 3 3 3 4 4 3 3 3 2 2 2 2 2 2 2 2 2 1 1 1 2 1 1 1 1 1 2 2 2
3 6 7 5 1 5 9 11 9 7 8 9 8 7 7 6 4 3 3 3 3 3 4 4 4 4 3 3 2 2 1 1 1 1 2 2 2 2 2 1 1 1 1 1 2 2 2 2 2
5 6 7 3 2 5 8 12 10 9 10 9 9 8 7 6 5 4 4 4 4 4 4 4 4 4 4 3 2 1 1 1 1 1 1 1 1 1 1 1 1 1 1 1 1 1 1 1 2
7 8 6 4 3 4 7 10 9 7 8 8 8 8 7 7 7 6 5 4 4 4 4 4 4 4 4 3 2 2 2 1 1 1 0 0 0 0 0 0 0 0 1 1 1 1 1 1 1
7 5 6 5 5 4 4 7 6 6 7 7 8 7 7 6 6 6 6 5 5 5 4 4 4 4 4 4 4 4 2 2 2 1 1 1 1 1 1 1 1 1 1 2 2 2 2 2 2
3 1 4 5 6 6 6 7 6 4 7 8 7 7 6 6 6 6 6 6 5 4 4 4 5 5 5 5 5 4 3 2 1 1 2 2 1 2 2 2 1 1 1 2 2 2 2 2 3
4 3 2 3 4 7 7 9 7 4 6 5 5 5 5 5 6 5 5 4 4 4 4 4 5 5 5 5 4 4 4 3 2 2 3 2 2 2 2 2 2 2 2 2 3 3 4 4 4
6 5 3 5 5 6 4 7 8 3 4 5 5 5 4 4 5 5 5 5 4 4 5 5 5 5 5 5 4 4 4 4 4 3 3 3 2 2 2 2 2 2 2 2 3 3 4 4 5
8 7 5 5 5 3 4 8 5 1 3 4 4 4 4 4 4 4 4 4 4 5 5 5 5 5 5 5 4 4 3 3 3 3 3 3 3 2 2 3 3 3 3 3 3 3 4 4 5
6 7 3 2 2 5 6 6 6 4 4 4 4 4 4 3 3 3 4 4 4 4 5 5 6 5 5 5 4 4 4 4 3 3 3 3 3 2 3 3 3 3 3 4 4 4 4 4 4
2 3 4 5 5 7 6 7 5 4 4 4 4 4 3 3 3 3 3 3 3 4 4 5 5 6 5 5 4 3 4 4 3 3 3 3 3 3 3 3 3 4 4 4 4 4 4 4 4
6 5 5 4 4 5 5 4 1 3 3 3 4 3 3 2 2 3 3 3 3 3 4 4 5 5 5 5 4 4 4 4 4 4 4 3 3 3 4 4 4 4 4 4 4 4 4 5 5
5 7 7 6 6 5 5 4 2 2 2 3 3 2 2 2 2 2 2 2 2 3 3 4 4 5 4 4 4 5 4 4 4 4 4 3 4 4 4 4 4 4 4 4 5 5 5 5 6
Wind_Direction
326 310 265 239 222 221 226 190 185 162 155 83 45 274 158 42 336 65 67 52 50 138 144 141 113 113 115 109 103 97 95 93 91 90 89 88 90 89 86 84 83 85 84 82 81 81 80 80 79
322 296 237 232 237 223 206 193 192 154 105 115 105 161 142 91 38 56 66 22 31 132 144 136 107 111 112 108 103 99 97 96 95 92 91 89 87 87 86 82 81 83 82 80 80 83 81 79 77
290 286 244 216 232 239 197 158 164 117 125 170 137 60 23 70 60 56 20 1 81 119 130 111 98 105 108 109 108 104 99 95 94 93 93 91 89 86 84 80 79 81 80 80 80 82 81 77 74
237 197 219 230 221 232 245 132 140 151 148 155 168 127 97 48 21 12 1 58 90 103 112 106 92 101 105 109 110 108 102 98 95 93 93 92 91 89 84 81 80 80 81 81 79 80 80 78 73
239 214 206 222 227 218 223 204 177 186 161 151 182 144 117 76 36 32 54 86 91 95 91 103 89 94 101 109 109 105 103 100 99 94 91 90 89 89 83 79 78 78 78 79 78 78 79 79 76
196 215 221 222 216 209 199 194 195 196 168 157 180 159 114 89 64 59 74 82 87 92 90 98 87 84 88 95 101 101 101 99 97 92 88 86 88 87 84 79 77 77 77 77 78 77 77 77 78
218 217 231 227 218 213 191 183 211 201 186 174 200 166 133 117 81 88 97 90 85 84 85 91 106 102 91 90 90 92 93 93 92 90 88 85 82 82 80 76 74 75 75 75 75 74 72 74 74
244 217 221 222 221 217 171 166 186 227 174 104 233 203 146 126 115 118 106 89 80 75 77 80 94 98 105 102 85 85 83 82 83 82 79 79 83 82 75 74 69 70 74 75 72 71 67 68 70
218 224 225 218 219 198 167 179 144 92 141 143 153 15 61 117 130 127 116 99 85 72 70 82 91 93 94 98 94 90 85 80 83 83 77 82 92 88 79 63 61 64 69 70 69 69 67 65 73
210 225 229 228 229 190 175 195 174 180 188 188 177 137 126 139 147 147 146 136 113 96 78 70 90 95 96 95 102 97 93 93 91 92 90 88 83 72 70 69 57 58 62 70 65 66 74 59 70
212 229 219 212 222 201 190 200 205 213 221 215 203 176 161 161 169 169 162 153 141 121 92 72 86 94 95 94 94 90 93 91 87 83 80 87 88 86 75 79 72 62 56 63 75 79 50 38 36
201 224 225 210 189 210 216 210 222 238 253 282 203 176 173 174 178 188 181 168 154 135 127 118 104 98 94 98 95 93 97 97 86 80 81 88 88 77 70 62 61 52 39 31 23 31 39 27 20
212 208 215 221 197 204 217 232 245 245 255 220 160 169 180 178 178 184 189 177 163 152 140 136 117 114 115 111 97 93 96 93 91 80 73 72 90 88 80 67 57 48 40 34 17 21 33 23 8
195 202 216 235 229 228 225 246 242 239 224 177 174 183 189 186 180 181 191 196 188 174 161 143 131 131 128 121 114 105 94 90 88 84 74 67 63 73 85 77 55 42 28 19 4 16 6 8 352
179 207 225 229 227 215 224 241 230 231 215 203 195 193 190 193 188 195 196 202 198 186 174 155 146 135 132 122 114 103 94 100 95 87 78 70 62 61 63 58 46 30 17 17 1 20 356 360 342
201 219 227 196 214 209 226 247 223 202 212 214 210 205 198 197 198 199 198 198 194 187 176 161 145 142 139 131 125 107 101 98 92 88 82 74 65 51 54 55 40 23 9 6 4 1 353 346 335
207 227 231 212 206 216 227 253 232 195 211 216 214 212 207 201 202 200 194 191 188 187 175 166 159 153 147 137 127 113 104 93 89 86 79 72 67 49 42 37 38 27 23 17 7 1 343 331 332
216 226 232 233 213 233 237 249 244 218 223 227 220 216 217 217 215 205 194 179 176 180 175 167 159 155 145 133 125 114 105 99 94 87 73 71 66 51 42 50 44 35 25 16 6 5 348 325 322
242 236 246 253 260 247 250 258 256 238 227 231 226 219 216 220 220 203 190 175 167 172 173 169 163 155 148 144 149 144 142 138 118 92 83 76 69 62 50 45 45 23 12 7 358 355 337 345 335
226 239 250 252 245 256 266 266 259 239 235 235 233 227 219 211 204 196 192 181 180 179 178 174 173 167 163 158 149 153 163 169 120 101 95 76 72 64 56 52 27 358 327 355 356 330 323 335 336
231 240 247 255 273 246 276 262 237 229 231 237 237 234 228 217 210 204 200 197 189 188 189 184 178 173 168 155 137 131 133 144 172 172 170 305 274 149 103 228 272 282 284 285 277 278 292 297 306
235 235 240 242 248 249 250 274 239 227 230 231 231 226 224 218 214 210 206 203 199 195 189 190 184 179 172 168 173 176 184 198 206 209 217 219 232 228 218 226 234 240 256 265 267 275 285 277 277
220 194 227 240 246 259 229 253 259 222 242 238 229 226 223 221 216 212 208 204 198 190 188 190 184 183 184 187 189 194 201 209 197 200 209 217 220 231 222 226 228 238 248 258 263 269 268 260 265
165 159 172 214 230 246 227 233 260 223 244 246 227 223 221 216 217 213 204 197 191 183 183 188 187 190 190 193 197 203 202 201 202 213 215 217 217 229 228 231 234 240 246 255 262 259 257 255 256
191 192 208 210 215 235 187 232 254 256 254 254 242 225 215 210 207 205 200 196 192 189 190 191 193 196 194 198 202 206 208 213 218 221 220 224 224 230 236 245 244 244 249 256 257 257 254 251 250
201 213 223 238 237 225 195 236 250 274 278 268 248 230 221 214 206 202 202 204 201 200 200 198 199 200 199 202 205 207 211 219 226 229 234 235 240 240 241 248 254 248 243 247 249 254 255 252 251
193 213 250 267 289 257 232 248 267 233 245 236 218 208 211 210 204 200 200 203 205 209 210 208 203 204 203 205 207 208 211 222 227 229 235 241 245 244 238 246 253 254 246 244 247 248 254 257 257
250 179 179 208 232 243 243 242 238 206 219 207 201 203 206 204 210 212 204 206 212 219 217 213 211 209 208 207 208 212 216 221 227 228 232 242 248 247 245 249 252 254 251 245 247 254 255 259 259
180 189 211 212 248 254 254 240 196 226 217 205 208 210 215 215 223 222 223 223 221 223 219 214 213 211 209 209 211 215 217 218 221 223 227 235 242 245 246 248 251 252 253 252 252 255 259 261 261
234 219 206 218 218 235 264 270 85 234 233 223 232 245 257 251 251 244 239 233 228 224 223 219 215 213 214 211 214 218 217 216 220 225 227 230 238 241 243 243 245 250 251 251 252 255 255 256 259